Hourly Data Report for September 26, 2017

All times are specified in Local Standard Time (LST). Add 1 hour to adjust for Daylight Saving Time where and when it is observed.

SATURNA ISLAND CS
BRITISH COLUMBIA

48°47'02.067" N
123°02'41.082" W
24.40 m
1017101
71473
WEZ

Download Data

Hourly Data (September 2017)
Hourly Data Report for September 26, 2017
Temp Definition
°C
Dew Point Temp Definition
°C
Rel Hum Definition
%
Wind Dir Definition
10's deg

Wind Spd Definition
km/h
Visibility Definition
km
Stn Press Definition
kPa
Hmdx Definition


Wind Chill Definition


Weather Definition


TIME
00:00 13.0 12.0 94 35 4   101.76     LegendNANA
01:00 13.0 12.0 94 31 5   101.79     LegendNANA
02:00 13.4 12.4 94 32 6   101.82     LegendNANA
03:00 11.9 10.9 93 24 4   101.83     LegendNANA
04:00 13.0 12.1 94 30 4   101.86     LegendNANA
05:00 13.2 12.3 94 31 7   101.86     LegendNANA
06:00 13.0 12.1 94 30 4   101.90     LegendNANA
07:00 13.6 12.7 94 32 2   101.95     LegendNANA
08:00 14.4 13.4 94 33 3   101.98     LegendNANA
09:00 14.9 13.6 92 0 1   101.99     LegendNANA
10:00 15.9 13.7 86 10 2   102.00     LegendNANA
11:00 18.0 13.7 76 25 3   101.98     LegendNANA
12:00 17.7 12.8 73 32 6   101.95     LegendNANA
13:00 18.5 13.1 71 28 3   101.94     LegendNANA
14:00 18.5 13.0 71 29 4   101.89     LegendNANA
15:00 18.0 12.7 71 32 3   101.85     LegendNANA
16:00 16.4 12.2 76 26 2   101.80     LegendNANA
17:00 15.4 13.0 86 26 3   101.75     LegendNANA
18:00 14.9 12.8 87 28 2   101.76     LegendNANA
19:00 15.1 13.0 87 30 4   101.76     LegendNANA
20:00 15.0 12.9 88 30 2   101.76     LegendNANA
21:00 14.9 12.9 88 26 3   101.76     LegendNANA
22:00 15.0 13.1 88 25 4   101.78     LegendNANA
23:00 15.0 12.9 87 27 3   101.79     LegendNANA

Notes on Data Quality.

Legend

  • E = Estimated
  • M = Missing
  • NA = Not Available
  • ‡ = Partner data that is not subject to review by the National Climate Archives
Date modified: